Voltar ao catálogo

SL-12 R/B(2)

AtivoHEO
NORAD 26486·ROCKET BODY·🇷🇺 Russia

Lançado Sep 5, 2000 de Baikonur Cosmodrome

Loading…

Próximas Passagens (próximas 24 horas)

TLE

AtualizadoSource: Space-Track

Época: Sep 13, 2026, 11:47 UTC

1 26486U 00051D   26256.49152167  .00000059  00000-0  00000-0 0  9992
2 26486  63.2285 239.1358 6557449 277.8834 332.0904  1.45766918138521

Acompanhe SL-12 R/B(2) em tempo real com AllMySat

Download on the App Store